Theta_e
295 295 296 297 296 296 297 297 296 296 295 296 297 296 296 298 298 299 302 304 304 307 308 308 308 308 307 306 306 304 304 304 305 306 308 305 305 305 305 304 306 306 306 306 306 306 307 305 304 304 305 302 301 300
296 296 296 296 296 296 296 297 297 296 296 296 296 297 298 298 298 300 302 303 304 305 305 306 305 306 305 305 304 304 304 304 305 309 307 306 306 308 305 306 304 306 308 308 308 307 305 304 306 304 303 302 300 299
296 296 297 297 299 299 298 298 297 298 298 298 298 298 298 299 300 301 302 302 304 301 301 303 303 304 305 304 303 303 303 302 303 304 307 306 306 305 307 306 305 304 305 309 306 306 305 304 303 302 301 300 299 298
296 298 300 302 304 304 306 303 300 298 298 299 299 299 299 299 299 301 302 302 303 302 302 301 301 302 303 304 304 302 303 303 304 304 305 306 306 304 305 306 307 307 305 306 304 304 304 304 302 301 299 298 298 297
298 300 305 307 309 309 307 304 302 300 299 299 299 299 300 300 300 301 302 302 302 301 302 301 301 302 302 302 302 301 302 302 303 303 307 305 302 302 302 303 309 305 305 306 305 305 303 303 301 299 298 297 297 296
299 302 307 306 308 310 310 310 309 303 301 300 300 300 301 300 301 302 300 300 302 301 301 302 301 301 301 301 301 301 301 301 300 301 302 302 301 303 305 301 301 302 302 303 303 303 303 302 300 299 298 297 295 293
299 300 304 308 309 309 308 307 307 303 301 301 301 301 301 301 301 301 301 301 301 300 300 302 300 300 301 300 300 300 300 300 301 301 302 300 299 301 305 301 301 300 301 301 302 301 301 300 299 298 297 294 291 290
298 299 300 302 304 304 303 302 301 301 301 301 301 301 301 300 300 300 300 301 301 301 301 303 301 300 300 301 300 300 300 301 302 301 300 302 300 302 303 301 301 301 301 301 300 300 300 298 296 295 293 292 291 290
298 298 298 299 299 300 300 300 300 300 301 301 300 299 299 299 299 300 300 301 301 300 301 303 303 302 300 301 300 300 301 304 301 305 303 303 303 302 302 301 301 300 301 300 299 298 297 296 295 293 291 290 290 288
297 297 298 299 299 300 300 300 300 299 298 298 298 298 298 298 299 299 298 296 299 301 301 304 301 302 301 300 301 302 303 304 304 304 301 303 304 302 301 301 301 300 300 299 298 297 296 294 292 291 290 288 287 286
297 297 297 297 297 297 297 297 297 298 298 298 298 296 296 297 299 300 299 303 302 305 302 301 300 301 300 303 303 302 304 304 304 303 303 303 304 301 300 300 300 299 298 298 297 296 295 293 291 289 287 286 285 284
296 296 297 296 296 296 296 297 298 298 298 299 296 297 299 299 300 301 302 302 303 302 301 301 300 301 301 301 302 303 302 304 304 302 302 303 302 300 299 298 296 296 294 293 292 291 291 290 288 288 286 285 284 283
294 294 294 295 295 295 297 297 296 296 296 297 296 295 298 298 302 304 300 302 303 302 301 301 303 301 302 301 301 303 303 303 301 302 303 303 301 299 297 296 295 293 292 291 290 288 287 286 286 286 285 284 282 282
294 294 293 294 295 295 295 296 297 297 296 296 299 298 302 301 302 302 304 303 301 302 301 302 303 302 301 301 302 301 302 302 302 303 303 303 300 298 296 295 294 292 290 289 288 286 286 286 285 284 283 282 281 281
294 293 293 293 293 294 296 296 296 294 295 296 297 297 296 296 297 299 302 302 302 302 302 302 302 302 302 300 301 300 300 301 302 303 305 300 298 297 295 293 292 289 288 288 287 287 286 284 284 283 282 281 280 280
293 293 293 293 293 293 293 293 294 294 296 296 297 297 297 299 300 302 302 302 302 302 302 302 303 303 302 302 302 302 302 302 304 305 301 298 297 296 294 293 291 289 287 288 287 286 284 283 283 282 281 280 279 279
293 293 293 293 293 293 294 294 295 295 296 297 296 296 297 297 297 297 298 300 302 302 303 303 303 302 302 302 301 302 305 304 301 300 299 297 295 294 293 292 290 288 287 287 286 284 283 282 281 281 281 279 279 278
293 293 292 293 293 294 295 296 295 295 295 294 296 295 294 296 296 297 299 301 302 302 302 301 301 301 303 301 303 302 297 297 298 297 295 295 293 292 291 290 288 287 285 285 284 283 283 281 281 280 280 279 279 279
293 292 292 293 293 294 295 296 295 295 294 294 293 294 294 294 295 296 298 300 301 302 301 301 303 303 303 302 301 298 296 295 294 292 292 292 291 290 289 288 287 285 284 284 282 282 282 282 283 282 281 280 281 280
293 292 292 293 294 294 295 296 296 295 295 293 293 294 293 294 294 296 297 299 300 301 300 302 300 297 298 298 298 296 296 294 292 290 290 290 289 289 288 287 286 285 283 283 283 282 281 281 281 280 280 280 280 280
292 292 293 293 293 294 295 295 295 295 295 294 294 296 295 296 297 298 297 297 297 300 299 295 293 294 295 296 296 296 294 293 293 293 290 289 289 288 287 286 286 284 284 283 282 282 282 282 281 280 279 279 278 278
292 292 292 292 293 293 293 294 295 295 295 295 296 296 297 297 296 295 295 298 298 294 294 294 293 293 293 293 294 294 294 294 293 293 292 289 288 287 287 286 285 284 284 283 283 282 282 281 280 279 279 278 277 277
292 293 292 294 293 293 293 294 294 295 296 296 296 296 297 296 294 293 297 297 294 291 291 291 291 291 291 292 292 292 292 292 291 291 291 289 288 287 286 285 285 284 284 283 283 282 281 280 279 278 278 277 278 278
293 292 292 293 293 293 293 293 294 295 295 296 295 295 295 295 293 296 297 297 293 290 289 289 289 289 289 289 289 290 290 290 290 289 289 288 288 287 286 285 284 284 283 283 282 281 280 279 278 278 278 277 277 277
294 291 293 293 293 294 295 294 294 295 295 294 295 295 294 294 297 296 296 297 294 293 291 289 289 291 292 290 289 288 288 289 288 288 288 287 286 285 285 284 283 283 283 282 281 280 279 279 278 278 277 277 277 277
293 291 294 294 294 295 295 295 295 295 295 295 294 293 294 296 295 295 295 296 295 293 291 289 289 289 289 290 288 287 287 287 287 286 286 286 285 285 284 283 282 281 281 281 280 280 279 278 278 277 277 277 276 275
294 293 292 291 293 294 295 294 294 295 295 295 294 294 295 295 295 295 294 293 293 291 290 288 288 288 289 288 288 287 285 286 286 285 285 285 284 284 283 283 282 281 280 280 280 279 279 278 277 277 276 276 275 274
292 292 292 292 293 293 295 295 295 295 296 295 294 295 295 295 296 295 293 292 291 290 290 289 288 288 288 287 286 286 284 284 285 284 283 283 283 283 283 282 282 282 281 279 278 279 278 277 277 276 276 275 275 274
291 291 291 291 292 293 294 296 296 295 294 294 297 296 295 293 292 291 290 291 290 289 289 288 288 288 287 285 285 284 285 284 284 283 282 281 281 280 281 281 281 281 280 279 278 277 277 276 276 276 275 275 274 274
290 291 292 291 292 294 291 289 290 288 290 292 292 291 291 289 289 289 289 289 289 289 288 287 288 287 287 286 284 283 283 282 282 282 281 282 281 280 281 280 280 279 279 278 278 277 275 275 275 275 274 274 273 273
289 290 292 293 293 289 287 285 285 286 287 289 289 291 292 289 288 288 288 288 288 287 287 286 285 285 284 284 283 282 282 282 282 282 282 283 283 281 281 280 279 278 278 277 277 276 275 274 274 274 273 273 273 272
289 291 292 292 290 285 284 287 289 289 288 289 290 287 287 288 290 288 288 287 286 284 284 284 284 284 284 283 283 282 282 283 283 282 281 281 281 281 280 279 278 277 276 276 275 274 274 274 274 273 273 273 273 273
288 288 289 289 288 288 286 288 289 290 288 289 290 289 288 289 290 285 284 284 284 283 282 282 282 282 283 282 282 282 282 282 282 281 281 280 280 279 279 278 277 276 275 275 274 274 273 273 273 273 273 273 272 272
Wind_Speed
43 41 39 40 43 46 46 49 52 51 51 47 43 46 47 46 44 46 28 29 21 7 8 17 19 25 18 21 10 21 12 8 9 7 4 4 4 7 6 12 7 9 7 6 6 4 9 14 9 3 7 5 3 1
34 34 36 35 39 42 44 47 53 54 53 52 52 50 48 46 45 45 30 28 18 10 3 12 12 21 16 22 18 27 7 16 7 5 4 2 2 4 6 6 7 6 4 4 1 1 5 11 11 9 4 8 5 3
33 35 32 32 40 47 48 51 53 54 52 52 52 50 48 48 45 43 35 28 19 15 11 13 13 13 19 21 26 13 11 22 12 7 5 2 3 4 4 5 7 7 10 1 2 6 9 7 7 6 5 6 5 2
31 25 21 28 28 35 39 49 53 53 53 51 51 51 50 48 48 32 41 32 26 11 4 3 8 11 15 13 22 21 21 12 13 12 4 2 2 1 4 4 5 7 10 7 2 4 7 5 7 7 6 5 3 2
18 9 11 25 29 31 35 42 53 56 55 54 53 54 52 46 49 36 38 28 26 8 6 13 17 11 13 14 15 15 19 18 13 5 2 3 4 1 3 2 3 8 7 6 2 9 7 6 12 8 8 5 3 1
22 12 18 29 34 35 39 39 45 54 56 56 53 52 52 49 49 39 13 28 14 36 17 4 11 14 14 14 16 16 18 16 9 7 3 5 2 3 2 3 5 5 7 6 3 8 7 10 10 8 8 7 4 2
35 39 43 34 37 42 43 43 50 58 58 60 56 58 58 48 48 23 10 27 34 25 12 5 4 9 18 18 17 14 12 8 11 4 1 6 4 1 0 2 9 4 7 5 12 11 10 10 10 8 8 5 5 4
40 48 59 66 60 56 57 59 65 67 66 68 65 57 53 46 27 24 36 37 23 14 7 4 5 9 11 15 10 13 11 8 3 3 2 6 4 1 2 9 6 8 11 11 10 4 7 11 10 7 6 5 3 2
35 47 57 63 69 71 76 76 76 74 71 67 64 48 38 28 18 27 31 25 10 6 6 3 7 5 10 13 11 8 4 2 3 1 3 5 4 2 5 9 7 10 8 10 9 9 9 9 8 6 5 3 2 2
36 42 51 57 60 63 66 65 67 68 62 55 47 26 11 17 41 35 22 5 5 5 3 4 12 6 17 13 4 5 2 3 3 3 7 2 4 10 7 4 8 9 10 11 10 8 8 7 7 5 4 4 3 2
35 39 41 48 56 61 63 61 58 54 45 33 15 10 40 35 21 5 4 4 4 3 8 11 20 12 15 5 4 4 2 2 3 3 4 4 4 7 8 9 10 9 10 8 7 8 6 8 8 7 5 3 2 1
37 43 49 54 49 49 49 46 44 29 18 17 32 33 15 6 4 5 2 1 3 4 10 13 20 19 14 7 4 3 3 1 2 5 2 2 5 14 13 13 11 11 12 12 11 11 12 11 9 7 5 3 3 5
33 33 37 36 37 37 34 29 23 37 41 37 19 7 2 4 4 4 5 4 5 6 21 22 11 7 5 6 4 2 3 2 13 2 4 3 16 16 15 14 13 11 11 12 12 12 11 10 9 6 6 3 3 5
28 27 29 31 28 26 25 37 29 28 25 9 6 6 4 3 5 4 5 6 10 25 27 22 11 5 5 3 3 3 3 4 4 4 3 8 17 17 16 13 14 13 14 14 12 10 8 5 5 3 1 1 2 3
30 28 26 28 28 26 28 25 23 18 8 7 7 5 4 2 4 4 10 21 27 28 23 15 8 6 3 3 2 4 3 4 5 2 6 19 19 19 17 17 16 15 18 16 12 8 5 4 2 1 0 1 1 2
29 29 26 20 21 19 17 13 10 11 7 6 8 6 7 8 4 10 20 21 21 21 13 7 3 3 2 5 3 3 6 4 3 5 17 19 19 18 18 18 19 15 16 12 10 7 6 4 2 1 1 1 2 2
28 24 19 16 16 12 9 13 9 9 7 5 5 12 14 9 10 11 12 9 8 7 2 3 4 2 4 3 3 2 3 6 15 16 15 15 18 21 22 20 17 16 13 10 9 8 6 4 2 3 3 3 3 6
26 18 16 16 14 13 22 12 8 8 9 12 6 10 14 14 13 12 13 11 6 5 5 3 5 3 3 3 4 5 8 17 16 15 14 16 17 19 19 17 17 14 12 11 9 8 6 5 5 4 2 3 5 6
21 16 13 13 12 8 8 9 8 6 8 8 12 14 14 13 15 11 10 8 8 7 5 4 3 3 3 6 11 15 16 17 17 14 15 14 16 17 16 16 15 13 12 11 9 6 5 8 8 4 4 1 2 2
16 15 14 11 12 7 7 7 7 8 5 5 7 9 6 6 6 9 11 11 9 5 5 3 3 4 6 10 11 15 14 19 19 19 15 15 16 16 16 17 15 13 12 10 10 10 6 5 6 5 6 6 4 2
12 16 17 18 20 12 7 5 7 6 7 6 3 4 5 7 6 7 9 10 8 5 4 5 8 11 12 13 12 13 15 13 12 8 17 20 18 17 16 14 13 13 13 12 10 10 9 8 7 6 1 2 4 5
11 13 15 14 8 7 7 9 7 6 5 6 4 5 5 4 4 4 4 7 5 4 4 6 8 9 8 9 11 11 12 11 9 8 10 13 19 17 17 17 14 14 11 11 10 10 10 9 10 7 5 5 2 2
9 11 8 7 6 6 3 5 5 3 3 3 4 3 3 3 3 3 3 4 3 3 6 7 8 8 6 6 7 8 11 10 10 12 13 13 15 14 15 15 14 14 13 12 12 11 12 13 10 6 6 4 2 3
8 6 7 6 7 4 4 4 4 4 4 2 2 3 3 2 2 2 2 3 2 3 3 5 5 5 4 5 4 7 11 11 12 10 12 14 16 16 15 15 15 14 13 14 13 13 13 11 8 8 6 4 4 4
4 7 5 6 4 3 3 3 2 3 3 2 3 2 2 1 1 2 1 4 4 4 4 3 6 6 3 4 7 8 12 12 12 13 14 14 15 15 15 15 14 14 16 16 15 13 10 10 9 8 7 6 7 6
5 5 4 2 1 2 2 3 3 4 3 2 2 3 1 1 1 2 2 4 3 3 5 5 5 5 6 8 10 8 13 13 11 12 13 15 16 15 17 17 17 15 15 14 13 12 11 11 9 10 10 10 11 8
3 3 3 3 3 5 4 5 6 3 3 3 4 4 3 3 3 3 5 5 4 2 1 3 5 5 6 9 9 9 10 14 13 12 14 15 13 13 16 18 17 14 17 17 15 12 11 10 10 10 8 8 9 6
2 1 2 2 3 2 2 3 3 2 3 6 8 4 5 4 2 4 4 8 5 4 4 6 8 8 8 9 12 13 12 14 16 16 14 17 17 17 18 17 17 16 13 14 13 15 13 10 10 10 10 8 10 6
2 3 5 3 2 1 2 1 3 3 3 10 4 3 4 3 5 4 7 8 7 6 5 5 6 7 8 9 9 11 12 15 17 15 15 13 16 16 19 18 17 16 13 14 13 12 13 12 10 10 11 11 9 6
3 5 3 4 3 3 2 1 2 3 5 6 4 4 4 2 4 5 5 6 7 7 7 7 6 7 8 9 10 10 10 12 12 10 13 14 13 15 17 18 18 16 14 13 13 13 11 10 10 10 8 8 5 4
3 3 2 4 2 2 3 3 3 3 3 3 4 4 3 4 3 6 8 9 9 10 9 10 11 9 11 11 12 12 13 14 17 17 16 15 17 13 13 15 15 13 12 11 11 11 12 10 8 6 6 7 6 7
4 4 2 3 3 2 3 3 3 3 2 3 4 3 2 3 4 5 7 11 12 11 10 11 11 11 12 12 12 12 13 13 16 18 18 17 15 15 14 15 15 14 13 12 10 9 9 9 8 7 8 8 7 8
3 3 2 2 4 5 3 4 4 3 3 4 5 5 4 3 1 7 8 9 13 14 13 10 12 14 12 14 15 17 18 13 12 17 17 15 13 13 14 14 14 14 13 12 12 11 10 10 9 8 7 7 8 9
Wind_Direction
287 278 268 255 246 241 236 227 223 221 221 220 218 214 209 205 207 205 198 193 197 213 172 184 183 180 193 175 163 156 144 175 186 183 195 210 209 176 178 179 169 190 196 201 232 258 252 149 135 211 115 123 146 179
282 274 272 254 241 235 226 220 217 216 217 218 215 209 202 201 199 202 197 189 193 100 46 157 160 168 182 184 149 161 132 160 150 185 197 215 221 166 197 154 166 190 201 215 311 158 110 122 98 99 105 153 146 173
288 284 272 251 238 233 224 216 210 208 204 205 200 198 196 191 194 191 183 173 151 119 96 129 128 167 152 168 169 170 190 173 171 171 171 181 204 164 197 196 148 207 156 150 187 173 143 123 106 119 125 136 147 175
302 293 260 236 211 200 201 200 199 198 194 193 189 189 187 188 192 184 176 164 155 111 92 65 116 134 134 147 182 185 148 150 155 167 126 156 189 225 206 174 174 160 176 172 211 228 119 155 155 160 141 132 151 162
328 355 203 174 172 175 175 182 188 189 187 185 184 181 181 183 183 177 175 168 147 130 130 120 112 113 121 128 136 150 146 141 157 124 88 186 75 126 44 343 111 174 174 186 235 181 158 172 150 165 156 152 177 199
54 75 151 155 159 161 163 164 169 173 179 177 173 174 178 173 170 162 145 163 174 137 112 100 90 115 121 129 129 136 149 155 163 155 117 74 54 326 140 215 72 137 75 139 112 124 152 142 158 168 159 153 145 116
76 88 125 145 143 152 150 152 159 163 161 163 164 168 168 171 174 149 164 149 151 141 109 109 99 102 121 119 115 112 118 116 113 78 130 129 136 22 331 262 109 98 118 126 115 118 131 158 150 142 147 145 140 106
91 91 102 116 126 133 134 138 144 148 151 154 151 151 149 146 141 130 137 144 138 118 101 105 109 133 148 125 111 131 118 92 62 110 143 109 117 143 220 87 109 128 114 122 123 90 166 132 128 132 138 141 132 95
94 97 101 110 118 122 128 134 137 142 147 146 138 131 127 131 128 133 138 142 132 104 116 129 150 136 172 135 123 104 100 86 84 220 156 142 127 165 106 127 145 132 151 147 134 126 132 136 136 134 134 111 120 71
110 104 111 113 119 123 128 133 132 127 123 123 127 127 113 129 133 134 131 135 80 60 88 140 120 134 143 139 106 133 169 133 154 217 112 249 74 107 113 84 137 139 144 154 149 159 145 138 135 131 122 101 95 80
102 106 108 113 114 117 118 121 125 128 131 128 114 94 128 130 128 115 95 106 135 109 117 129 141 133 146 122 135 118 159 171 168 137 170 195 151 137 151 124 122 132 125 119 130 146 158 157 147 142 131 114 98 69
95 102 102 109 108 117 123 126 129 130 131 135 127 119 108 118 107 91 76 112 154 129 128 139 137 133 126 122 104 157 110 269 116 115 153 209 121 144 144 136 127 126 125 123 127 130 145 144 140 153 130 132 216 286
94 91 91 104 113 119 121 125 123 109 117 122 117 81 98 33 98 146 145 115 128 125 138 145 127 120 103 83 72 90 136 118 126 179 188 73 143 151 149 142 137 135 133 127 122 122 127 131 136 148 188 236 270 308
113 107 102 110 119 124 121 123 117 117 122 83 51 59 18 65 56 22 71 113 132 137 135 138 132 97 111 84 149 96 53 151 183 195 153 139 152 150 148 152 150 144 145 140 135 136 147 154 158 189 246 271 283 328
111 114 108 102 109 121 129 127 132 120 63 62 36 59 59 71 50 8 95 119 127 135 135 119 92 90 93 112 117 114 138 169 205 182 108 132 144 148 151 157 155 159 166 170 171 171 164 162 152 127 67 346 354 342
116 118 92 112 113 106 117 124 103 73 62 56 50 86 99 99 65 81 103 120 135 135 121 95 110 97 99 127 133 164 164 167 121 109 124 134 143 150 155 162 176 174 171 178 178 181 175 166 155 97 66 34 22 22
124 97 88 116 133 97 94 103 55 56 61 55 47 49 79 57 60 61 72 66 124 108 120 112 76 70 139 133 118 143 44 103 109 111 126 144 149 160 171 177 179 168 171 174 176 173 173 171 155 96 40 38 42 44
111 108 96 113 121 89 71 53 73 62 59 43 68 67 64 68 79 76 73 63 89 91 67 81 123 113 132 132 118 112 108 106 136 132 132 151 164 171 178 182 172 170 175 170 171 172 167 151 112 136 195 67 74 39
115 100 71 123 133 77 56 44 51 77 67 77 75 84 82 77 84 93 85 76 80 87 98 86 77 75 68 51 102 120 137 137 136 140 148 159 165 170 170 170 172 178 177 172 167 163 162 161 162 163 160 164 156 226
107 67 80 114 118 73 66 43 54 72 62 75 64 56 68 83 74 56 65 59 48 61 52 45 45 51 88 90 127 141 148 162 155 143 151 162 170 173 174 171 174 183 167 160 165 180 200 160 176 173 189 196 170 219
93 70 89 97 71 68 76 60 60 82 88 79 121 86 73 68 55 46 35 27 54 25 74 69 100 125 137 127 114 137 151 150 154 174 177 175 178 176 169 177 189 172 173 178 180 181 173 191 189 207 193 152 236 230
78 69 69 66 70 71 64 48 97 92 76 111 84 78 83 76 57 27 13 45 62 54 80 113 129 125 134 141 145 154 157 159 168 173 193 185 175 180 180 192 180 179 188 186 184 186 180 190 204 199 181 237 218 214
80 49 53 46 75 67 56 34 72 58 101 121 116 79 79 67 39 31 70 66 81 120 131 148 151 156 177 168 176 175 167 155 161 185 191 184 185 189 193 193 186 190 187 185 189 190 190 211 206 182 207 177 158 277
40 48 38 45 55 86 82 59 72 78 74 64 91 90 71 68 36 59 86 81 144 117 152 172 173 164 162 155 163 180 163 171 187 187 181 179 181 189 194 188 190 192 190 187 187 193 212 203 208 187 197 193 219 197
55 17 45 60 62 92 90 83 67 78 90 88 96 95 95 98 114 90 136 117 145 165 204 214 194 199 195 178 191 184 182 188 188 184 192 192 189 186 182 188 186 189 192 191 191 202 197 199 204 193 222 193 220 244
66 15 31 56 62 91 115 110 124 124 112 103 87 106 121 133 120 124 125 133 143 183 208 199 191 194 192 210 213 213 192 184 198 198 197 196 198 193 189 185 185 189 202 195 197 194 206 205 200 201 221 233 239 235
66 52 54 54 80 109 101 84 112 112 120 140 154 159 160 162 156 122 130 122 155 162 290 148 155 167 190 198 206 205 201 191 194 201 200 197 197 197 200 199 200 204 195 191 195 198 215 199 203 210 206 228 255 235
73 140 118 109 80 37 102 113 139 148 140 140 148 174 172 187 104 116 170 189 178 162 150 134 151 185 211 213 215 219 206 196 193 198 192 184 189 190 198 198 201 211 219 199 191 192 205 205 204 203 212 226 248 259
118 145 131 127 137 151 191 176 161 90 107 165 165 150 150 96 147 160 177 182 188 188 183 177 185 198 210 215 220 215 209 200 199 198 201 200 201 200 205 204 207 213 217 206 204 199 196 197 200 199 208 227 246 251
160 171 197 166 196 181 110 53 84 161 152 156 127 124 122 125 172 184 191 199 204 207 217 224 235 216 219 215 213 219 212 201 204 216 207 212 226 219 211 205 209 215 216 213 210 212 212 209 208 215 225 229 250 277
158 188 200 192 146 123 136 160 122 121 129 142 180 150 143 184 211 213 212 219 216 217 214 215 235 230 223 220 220 216 208 208 207 210 213 219 221 229 227 211 210 209 207 209 215 207 204 203 200 213 226 238 259 277
178 202 195 183 154 178 140 157 151 170 152 180 184 172 185 184 209 248 246 232 227 224 225 216 232 248 237 234 232 231 229 234 224 214 217 220 225 230 221 207 203 194 196 205 211 200 196 182 193 214 238 257 278 294
186 180 203 175 165 177 172 173 181 180 210 211 209 207 211 229 232 243 256 230 219 216 215 221 229 224 231 231 223 226 234 234 219 212 218 219 225 220 210 202 196 198 202 201 201 205 193 197 210 226 250 276 290 301